AirNav   Duncan Aviation - Near you to keep you flying
 
 1075 users online  

81MO Bates County Hospital Heliport
Butler, Missouri, USA

GOING TO BUTLER?


FAA INFORMATION EFFECTIVE 07 OCTOBER 2021

Location

FAA Identifier: 81MO
Lat/Long: 38-14-54.0000N 094-20-32.0000W
38-14.900000N 094-20.533333W
38.2483333,-94.3422222
(estimated)
Elevation: 820 ft. / 250 m (estimated)
Variation: 05E (1985)
Time zone: UTC -5 (UTC -6 during Standard Time)
Zip code: 64730

Heliport Operations

Heliport use: Private use, MEDICAL.
Activation date: 04/1983
Control tower: no
ARTCC: KANSAS CITY CENTER
FSS: COLUMBIA FLIGHT SERVICE STATION
Attendance: CONTINUOUS
Wind indicator: lighted
Segmented circle: no

Nearby radio navigation aids

VOR radial/distance  VOR name  Freq  Var
BUMr095/7.0BUTLER VORTAC115.9007E

Heliport Services

Runway Information

Helipad H1

Dimensions: 60 x 60 ft. / 18 x 18 m
Surface: asphalt/concrete
Runway edge lights: PERI
Latitude: 38-14.900000N
Longitude: 094-20.533333W
Elevation: 820.0 ft.
Traffic pattern: leftleft

Heliport Ownership and Management from official FAA records

Ownership: Publicly-owned
Owner: BATES COUNTY HOSPITAL
615 W NURSERY
BUTLER, MO 64730
Phone 660-200-7000
Manager: JOHN P. BUSTLE MD FAAFT
P.O. BOX 370
BUTLER, MO 64730
Phone 660-200-7000

Additional Remarks

A52-H1 BLDG 60 FT NW; PLINES 90 FT SOUTH; 60 FT LGTD COMM TWR 90 FT NW; 480 FT TWR 2000 FT SOUTHWEST OF HELI.
FOR CD CTC KANSAS CITY ARTCC AT 913-254-8508.

Instrument Procedures

There are no published instrument procedures at 81MO.

Some nearby airports with instrument procedures:

KBUM - Butler Memorial Airport (2 nm N)
KLRY - Lawrence Smith Memorial Airport (22 nm N)
KNVD - Nevada Municipal Airport (24 nm S)
KGLY - Clinton Regional Airport (32 nm E)
K81 - Miami County Airport (32 nm NW)
 
Loc | Ops | Rwys | IFR | FBO | Links
Com | Nav | Svcs | Stats | Notes
Area around 81MO (Bates County Hospital Heliport)
 
Road maps at: MapQuest Bing Google
 
Aerial photo
No photo
 
Sectional chart

 
Airport distance calculator
Flying to Bates County Hospital Heliport? Find the distance to fly.

From to 81MO

Sunrise and sunset
Times for 21-Oct-2021
 Local
(UTC-5)
 Zulu
(UTC)
Morning civil twilight07:0612:06
Sunrise07:3312:33
Sunset18:3123:31
Evening civil twilight18:5823:58

Current date and time
Zulu (UTC)  21-Oct-2021 12:26:15
Local (UTC-5)  21-Oct-2021 07:26:15
 
METAR
KLRY 
22nm N 
211215Z AUTO 29004KT 10SM CLR 06/03 A3016 RMK AO2
KGLY 
32nm E 
211215Z AUTO 29006KT 10SM CLR 07/04 A3012 RMK AO2
KOJC 
40nm NW 
211153Z 30009KT 10SM CLR 06/02 A3012 RMK AO2 SLP200 T00610022 10100 20061 53008
KRCM 
41nm NE 
211215Z AUTO 26005KT 10SM BKN025 06/02 A3012 RMK AO2
KIXD 
43nm NW 
211153Z 29010KT 10SM CLR 06/02 A3014 RMK AO2 SLP205 T00610017 10094 20061 53009
KLXT 
43nm N 
211153Z AUTO 29008KT 10SM FEW025 06/03 A3012 RMK AO2 SLP200 T00610028 10100 20061 53009 $
TAF
KIXD 
43nm NW 
211120Z 2112/2212 30012G20KT P6SM OVC025 FM211900 30012KT P6SM SCT200 FM220000 VRB04KT P6SM SKC
KSZL 
47nm NE 
211100Z 2111/2217 29009KT 9999 SKC QNH3002INS BECMG 2114/2115 30012G18KT 9999 BKN030 QNH3008INS BECMG 2123/2124 32009KT 9999 OVC025 QNH3010INS BECMG 2208/2209 VRB06KT 9999 FEW040 QNH3014INS TX16/2122Z TN06/2210Z
NOTAMs
Click for the latest NOTAMs
NOTAMs are issued by the DoD/FAA and will open in a separate window not controlled by AirNav.

 

 
 

Would you like to see your business listed on this page?

 If your business provides an interesting product or service to pilots, flight crews, aircraft, or users of the Bates County Hospital Heliport, you should consider listing it here.  To start the listing process, click on the button below
 
Add a business
 

Other Pages about Bates County Hospital Heliport

Update a link
 
Copyright © AirNav, LLC. All rights reserved. Privacy Policy  Contact